FW9424 Weather Reports


time (UTC)temp
F
wind
direction
speed
knots
gust
knots
rain 1hr
in
rain 24hr
in
rain mn
in
humidity
%
barometer
mb
20260508082517 70 346 3.5 7.8 0.00 0.00 0.00 63 1018.6
20260508081537 72 268 4.3 7.0 0.00 0.00 0.00 59 1018.6
20260508080517 75 0.0 0.0 0.00 0.00 0.00 44 1018.5
20260508075518 74 217 0.0 0.9 0.00 0.00 0.00 48 1018.4
20260508074537 73 111 0.0 0.9 0.00 0.00 0.00 49 1018.1
20260508073517 72 99 0.0 2.6 0.00 0.00 0.00 51 1018.0
20260508072517 72 113 0.0 0.9 0.00 0.00 0.00 53 1018.0
20260508071537 72 99 0.0 2.6 0.00 0.00 0.00 54 1017.8
20260508070518 72 71 0.0 1.7 0.00 0.00 0.00 59 1017.7
20260508065517 72 103 0.9 3.5 0.00 0.00 0.00 60 1017.7
20260508064518 72 103 0.9 2.6 0.00 0.00 0.00 60 1017.6
20260508063517 71 128 0.9 2.6 0.00 0.00 0.00 61 1017.5
20260508062537 71 99 1.7 6.1 0.00 0.00 0.00 63 1017.4
20260508061537 70 228 0.0 2.6 0.00 0.00 0.00 65 1017.5
20260508060518 70 160 0.0 2.6 0.00 0.00 0.00 65 1017.4
20260508055517 69 113 0.9 6.1 0.00 0.00 0.00 66 1017.4
20260508054517 69 113 0.9 7.0 0.00 0.00 0.00 68 1017.5
20260508053518 68 100 2.6 7.0 0.00 0.00 0.00 66 1017.6
20260508052517 69 101 0.9 7.0 0.00 0.00 0.00 66 1017.7
20260508051537 67 101 3.5 5.2 0.00 0.00 0.00 69 1017.7
20260508050517 67 105 3.5 7.8 0.00 0.00 0.00 71 1017.7
20260508045538 66 107 4.3 7.8 0.00 0.00 0.00 70 1017.6
20260508044518 66 105 3.5 8.7 0.00 0.00 0.00 70 1017.5
20260508043517 65 96 0.9 3.5 0.00 0.00 0.00 69 1017.6
20260508042517 63 109 0.9 2.6 0.00 0.00 0.00 70 1017.6
20260508041517 63 0.0 0.0 0.00 0.00 0.00 70 1017.6
20260508040517 62 0.0 0.0 0.00 0.00 0.00 69 1017.6
20260508035518 62 0.0 0.0 0.00 0.00 0.00 69 1017.6
20260508034517 62 0.0 0.0 0.00 0.00 0.00 69 1017.7
20260508033517 62 0.0 0.0 0.00 0.00 0.00 67 1017.6
20260508032517 63 0.0 0.0 0.00 0.00 0.00 67 1017.4
20260508031518 63 0.0 0.0 0.00 0.00 0.00 64 1017.4
20260508030517 63 0.0 0.0 0.00 0.00 0.00 64 1017.5
20260508025517 63 0.0 0.0 0.00 0.00 0.00 64 1017.5
20260508024517 64 0.0 0.0 0.00 0.00 0.00 65 1017.4
20260508023517 64 0.0 0.0 0.00 0.00 0.00 66 1017.3
20260508022517 65 0.0 0.0 0.00 0.00 0.00 68 1017.3
20260508021517 65 0.0 0.0 0.00 0.00 0.00 70 1017.2
20260508020517 65 215 0.0 0.9 0.00 0.00 0.00 68 1017.2
20260508015517 65 99 0.0 2.6 0.00 0.00 0.00 69 1017.3
20260508014517 65 109 0.9 5.2 0.00 0.00 0.00 69 1017.3
20260508013517 65 112 0.0 2.6 0.00 0.00 0.00 71 1017.5
20260508012517 65 121 2.6 6.1 0.00 0.00 0.00 73 1017.6
20260508011558 65 108 1.7 7.0 0.00 0.00 0.00 72 1017.3
20260508010517 65 123 0.9 4.3 0.00 0.00 0.00 70 1017.3
20260508005517 64 105 1.7 7.8 0.00 0.00 0.00 73 1017.4
20260508004517 64 101 1.7 6.1 0.00 0.00 0.00 75 1017.5
20260508003538 64 110 1.7 7.0 0.00 0.00 0.00 77 1017.5
20260508002517 64 101 2.6 7.8 0.00 0.00 0.00 77 1017.6
20260508001518 64 103 1.7 7.0 0.00 0.00 0.00 76 1017.6
20260508000517 64 77 0.9 4.3 0.00 0.00 0.00 76 1017.8
20260507235518 64 96 0.9 4.3 0.00 0.00 0.00 76 1018.0
20260507234517 63 103 0.9 6.1 0.00 0.00 0.00 73 1018.1
20260507233518 63 0.0 0.0 0.00 0.00 0.00 66 1018.1
20260507232517 63 0.0 0.0 0.00 0.00 0.00 64 1018.0
20260507231518 63 0.0 0.0 0.00 0.00 0.00 64 1018.2
20260507230517 63 0.0 0.0 0.00 0.00 0.00 63 1018.2
20260507225517 62 0.0 1.7 0.00 0.00 0.00 65 1018.1
20260507224539 63 0.0 0.0 0.00 0.00 0.00 66 1018.0
20260507223517 63 116 0.0 0.9 0.00 0.00 0.00 66 1018.1
20260507222519 64 325 0.0 1.7 0.00 0.00 0.00 69 1018.2
20260507221517 65 105 1.7 6.1 0.00 0.00 0.00 65 1018.1
20260507220517 63 0.0 0.0 0.00 0.00 0.00 65 1018.1
20260507215517 63 0.0 0.0 0.00 0.00 0.00 63 1018.2
20260507214517 63 0.0 0.0 0.00 0.00 0.00 65 1018.3
20260507213516 63 0.0 0.0 0.00 0.00 0.00 64 1018.3
20260507212517 63 0.0 0.0 0.00 0.00 0.00 61 1018.2
20260507211516 64 0.0 0.0 0.00 0.00 0.00 61 1018.3
20260507210517 64 0.0 0.0 0.00 0.00 0.00 59 1018.3
20260507205517 64 37 0.0 2.6 0.00 0.00 0.00 57 1018.3
20260507204518 64 28 0.0 0.9 0.00 0.00 0.00 56 1018.1
20260507203519 64 0.0 0.0 0.00 0.00 0.00 56 1018.0
20260507202518 64 17 0.9 2.6 0.00 0.00 0.00 61 1018.0
20260507201518 64 15 0.0 0.9 0.00 0.00 0.00 62 1018.0
20260507200518 64 53 0.0 0.9 0.00 0.00 0.00 62 1018.1
20260507195518 65 58 0.0 0.9 0.00 0.00 0.00 63 1018.0
20260507194519 65 56 0.0 0.9 0.00 0.00 0.00 63 1018.0
20260507193538 65 54 1.7 3.5 0.00 0.00 0.00 64 1018.2
20260507192542 65 300 2.6 4.3 0.00 0.00 0.00 69 1018.3
20260507191518 66 279 1.7 3.5 0.00 0.00 0.00 64 1018.0
20260507190517 65 0.0 0.0 0.00 0.00 0.00 63 1017.9
20260507185517 65 0.0 0.9 0.00 0.00 0.00 65 1018.0
20260507184517 65 0.0 0.0 0.00 0.00 0.00 67 1018.2
20260507183518 65 139 0.0 1.7 0.00 0.00 0.00 67 1018.1
20260507182517 65 180 0.0 2.6 0.00 0.00 0.00 68 1018.0
20260507181519 66 319 0.9 2.6 0.00 0.00 0.00 66 1018.0
20260507180538 66 338 0.9 1.7 0.00 0.00 0.00 66 1017.9
20260507175517 67 0.0 0.0 0.00 0.00 0.00 66 1017.8
20260507174519 67 0.0 0.9 0.00 0.00 0.00 66 1017.8
20260507173518 67 0.0 0.9 0.00 0.00 0.00 66 1017.8
20260507172517 68 101 0.9 2.6 0.00 0.00 0.00 65 1017.8
20260507171517 69 194 0.9 2.6 0.00 0.00 0.00 63 1017.8
20260507170517 70 0.0 0.0 0.00 0.00 0.00 59 1017.7
20260507165518 71 0.0 0.0 0.00 0.00 0.00 57 1017.7
20260507164518 72 171 0.0 0.9 0.00 0.00 0.00 48 1017.6
20260507163517 72 14 0.9 2.6 0.00 0.00 0.00 48 1017.6
20260507162519 73 341 2.6 5.2 0.00 0.00 0.00 50 1017.8
20260507161517 75 300 1.7 4.3 0.00 0.00 0.00 48 1017.7
20260507160517 77 354 0.0 2.6 0.00 0.00 0.00 47 1017.6
20260507155518 76 229 0.9 1.7 0.00 0.00 0.00 49 1017.6
20260507154518 74 264 0.9 2.6 0.00 0.00 0.00 49 1017.6
20260507153518 75 317 0.9 2.6 0.00 0.00 0.00 49 1017.5
20260507152538 75 224 0.0 1.7 0.00 0.00 0.00 57 1017.5
20260507151519 73 272 0.9 3.5 0.00 0.00 0.00 53 1017.4
20260507150517 72 291 1.7 3.5 0.00 0.00 0.00 54 1017.5
20260507145517 72 292 1.7 4.3 0.00 0.00 0.00 55 1017.6
20260507144517 72 300 1.7 3.5 0.00 0.00 0.00 58 1017.6
20260507143518 71 294 1.7 6.1 0.00 0.00 0.00 59 1017.7
20260507142538 71 277 4.3 8.7 0.00 0.00 0.00 62 1017.8
20260507141518 71 270 4.3 8.7 0.00 0.00 0.00 61 1017.7
20260507140518 71 268 4.3 7.8 0.00 0.00 0.00 62 1017.6
20260507135538 70 289 4.3 8.7 0.00 0.00 0.00 66 1017.7
20260507134518 71 285 5.2 8.7 0.00 0.00 0.00 65 1017.8
20260507133518 73 286 4.3 7.8 0.00 0.00 0.00 56 1017.7
20260507132518 72 286 2.6 7.0 0.00 0.00 0.00 54 1017.8
20260507131518 72 307 2.6 5.2 0.00 0.00 0.00 56 1017.9
20260507130518 72 288 3.5 7.8 0.00 0.00 0.00 52 1017.8
20260507125518 73 265 4.3 7.0 0.00 0.00 0.00 54 1017.9
20260507124519 72 320 2.6 5.2 0.00 0.00 0.00 56 1017.9
20260507123518 73 299 3.5 6.1 0.00 0.00 0.00 59 1018.0
20260507122518 75 274 2.6 7.0 0.00 0.00 0.00 59 1017.9
20260507121518 73 261 1.7 4.3 0.00 0.00 0.00 63 1018.0
20260507120518 73 297 3.5 7.0 0.00 0.00 0.00 63 1018.0
20260507115518 72 302 2.6 6.1 0.00 0.00 0.00 64 1018.0
20260507114518 72 289 4.3 8.7 0.00 0.00 0.00 65 1018.1
20260507113518 74 287 4.3 9.6 0.00 0.00 0.00 55 1018.0
20260507112518 76 289 4.3 7.8 0.00 0.00 0.00 49 1017.9
20260507111518 79 208 4.3 9.6 0.00 0.00 0.00 35 1017.9
20260507110518 79 187 3.5 7.8 0.00 0.00 0.00 36 1017.9
20260507105518 79 178 5.2 8.7 0.00 0.00 0.00 35 1018.0
20260507104518 78 168 4.3 10.4 0.00 0.00 0.00 34 1018.0
20260507103538 78 187 2.6 7.8 0.00 0.00 0.00 37 1018.0
20260507102538 77 193 3.5 10.4 0.00 0.00 0.00 39 1018.0
20260507101519 77 194 3.5 7.8 0.00 0.00 0.00 44 1018.1
20260507100518 77 175 4.3 9.6 0.00 0.00 0.00 42 1018.1
20260507095518 76 159 3.5 9.6 0.00 0.00 0.00 41 1018.1
20260507094518 76 157 4.3 9.6 0.00 0.00 0.00 43 1018.1
20260507093518 76 158 4.3 9.6 0.00 0.00 0.00 43 1018.1
20260507092518 75 172 4.3 9.6 0.00 0.00 0.00 43 1018.1
20260507091519 76 184 4.3 8.7 0.00 0.00 0.00 44 1018.3
20260507090518 75 153 2.6 7.0 0.00 0.00 0.00 45 1018.3
20260507085518 75 150 1.7 6.1 0.00 0.00 0.00 44 1018.3
20260507084518 75 155 1.7 7.0 0.00 0.00 0.00 43 1018.3
20260507083539 74 136 3.5 7.8 0.00 0.00 0.00 44 1018.4